Theta_e
336 335 336 334 332 331 329 327 327 326 326 331 331 329 330 330 329 328 326 325 325 325 324 323 323 322 321 319 319 319 318 318 318 318 318 316 316 316 316 315 315 315 315
336 335 335 334 332 331 329 327 327 326 326 329 330 329 330 328 328 326 324 324 324 323 323 323 322 321 320 320 319 318 318 317 318 317 316 315 315 315 314 315 315 314 314
335 334 333 332 332 331 329 327 328 327 325 328 329 329 328 327 326 325 323 323 323 323 322 321 320 321 321 320 319 318 318 317 317 317 316 315 314 314 313 313 312 312 312
334 333 333 332 332 330 330 328 325 325 328 329 329 328 327 325 323 323 323 322 322 321 319 319 321 320 320 319 318 318 317 317 317 317 316 315 314 313 313 311 310 311 311
334 332 332 331 331 330 330 328 326 326 326 328 327 327 325 324 322 322 323 322 321 321 320 321 321 320 318 318 318 318 318 318 318 318 316 316 313 312 312 310 309 308 308
333 332 331 331 330 330 329 329 327 326 326 327 327 324 323 322 321 321 322 322 321 321 321 320 321 319 318 317 318 318 318 318 318 318 317 316 316 313 312 311 309 306 305
332 331 331 331 329 329 329 328 328 327 326 327 326 324 323 321 320 320 322 321 321 321 321 320 318 318 317 317 317 318 318 318 318 318 318 317 316 315 313 310 308 305 304
331 330 330 329 328 328 329 328 327 325 326 325 325 323 323 323 322 322 322 320 322 320 320 322 320 319 318 317 316 316 318 319 319 319 318 317 316 315 312 311 307 305 305
331 330 329 329 328 328 328 328 327 325 325 325 324 322 323 323 323 321 321 321 322 322 320 322 322 320 319 318 317 314 316 317 319 319 319 318 316 315 313 312 311 311 310
329 329 328 328 327 328 328 328 327 325 324 325 324 323 322 322 322 324 322 322 321 321 321 321 321 320 320 320 320 319 318 314 314 317 319 319 318 317 317 317 317 317 317
329 329 328 328 327 327 327 327 327 326 324 324 324 324 321 323 321 323 322 323 322 323 322 321 321 319 319 319 319 320 319 319 317 313 312 318 320 320 319 319 319 319 319
325 324 326 327 328 326 326 326 326 326 324 324 324 323 322 322 323 323 321 323 322 322 322 320 319 321 320 319 319 319 319 318 318 318 318 316 315 318 320 320 320 319 318
322 324 323 322 324 325 325 325 325 326 324 324 323 323 323 321 323 323 323 323 323 323 323 323 322 320 320 320 319 319 319 318 320 320 320 319 318 316 315 315 317 319 319
323 322 321 322 323 324 324 324 324 325 323 322 323 323 323 324 324 322 323 322 321 321 322 322 323 323 322 321 321 322 323 321 320 320 320 320 320 318 317 317 316 316 316
323 322 320 321 321 322 323 323 323 322 322 321 324 323 323 324 323 323 323 322 320 319 319 321 322 323 323 323 323 322 322 322 322 322 321 320 319 319 318 316 316 316 316
324 321 321 320 320 321 322 322 323 323 322 322 324 323 323 322 322 322 322 321 320 321 319 319 319 318 319 321 321 320 319 320 321 322 321 321 320 317 316 315 315 316 315
325 323 322 320 319 320 320 321 322 322 323 322 323 322 321 322 321 321 320 320 321 321 321 320 319 318 318 318 319 318 317 317 318 319 319 318 317 317 316 316 315 315 316
325 324 322 321 319 319 319 320 321 321 320 319 317 314 318 319 320 319 319 321 321 321 321 320 319 319 318 318 317 317 317 317 317 317 317 317 318 318 318 317 318 316 316
323 322 323 322 320 319 319 319 319 319 317 316 316 315 316 317 317 318 319 320 320 320 319 319 318 317 316 316 316 317 318 318 319 319 318 318 318 318 317 316 315 315 314
323 324 322 322 321 319 318 317 317 317 316 315 315 315 317 318 318 317 318 317 317 317 317 318 317 316 315 317 317 318 319 320 320 319 319 313 312 313 312 308 307 307 306
321 321 320 318 317 317 317 318 317 316 315 315 315 315 315 316 317 317 316 316 317 317 316 316 316 317 318 318 314 307 310 310 311 312 311 308 306 305 303 303 302 301 300
314 314 313 310 309 309 312 317 316 317 317 316 316 315 314 315 315 315 315 315 313 313 314 310 311 303 300 298 301 300 301 302 304 303 302 300 301 298 296 293 292 292 292
304 301 300 303 303 303 306 309 311 311 309 305 304 303 303 303 302 302 300 301 301 300 302 301 295 291 290 290 292 294 294 294 296 294 295 295 293 292 291 290 290 289 289
294 293 293 293 294 294 299 303 306 303 299 296 296 296 296 298 298 298 297 296 292 291 292 292 290 287 287 290 291 291 291 291 290 289 289 290 289 288 288 287 286 286 286
289 288 288 289 289 289 292 294 297 294 291 288 288 290 292 293 292 294 293 289 287 286 285 285 285 285 285 287 289 290 290 290 290 286 284 286 288 288 288 287 286 285 285
286 286 286 286 287 288 288 289 290 288 286 285 285 285 286 287 287 288 288 287 285 285 285 285 284 283 283 282 283 284 285 286 287 287 282 284 286 286 288 288 287 286 285
Wind_Speed
24 25 22 26 27 22 26 28 27 24 20 24 24 24 22 22 20 24 25 21 19 18 18 17 17 16 16 16 16 16 16 15 14 13 13 13 12 11 10 10 10 10 10
21 22 22 22 21 25 29 29 27 26 26 25 28 25 21 23 26 22 26 23 18 18 20 19 17 17 16 16 16 16 16 15 15 14 13 13 13 11 10 10 9 8 9
21 22 25 25 22 24 26 27 27 24 31 30 28 27 23 17 22 27 24 23 20 19 18 19 19 18 16 16 16 15 14 14 14 14 13 12 12 12 12 11 10 9 9
18 20 18 23 23 22 24 25 28 24 27 30 30 31 22 19 17 21 22 20 20 21 19 18 18 18 16 16 15 15 15 15 15 14 13 12 12 12 12 11 11 10 10
17 18 20 21 21 22 23 23 24 29 22 20 22 23 20 21 19 15 23 21 19 20 20 20 19 17 16 17 16 16 16 16 16 16 16 15 15 15 14 13 13 13 12
18 19 19 19 21 22 20 23 28 28 26 26 21 23 23 21 21 18 22 23 22 20 20 21 19 18 16 18 19 18 18 17 17 16 16 16 16 16 15 15 15 13 13
22 21 20 20 21 23 23 26 29 29 23 24 17 14 19 24 22 18 19 22 25 23 22 22 23 21 21 22 21 20 19 19 19 19 18 18 18 17 16 17 15 14 14
21 22 21 24 22 21 23 29 30 24 22 23 15 12 3 7 13 17 14 18 27 22 23 25 21 23 23 26 25 23 21 20 19 19 20 20 19 19 19 18 16 16 16
24 23 23 23 23 25 30 34 34 31 24 30 26 15 4 3 6 11 16 16 13 17 19 28 24 20 24 24 20 24 26 24 22 20 20 21 22 21 20 17 17 17 18
19 20 21 26 26 31 30 33 36 33 27 23 27 22 15 17 5 3 16 21 20 17 18 22 24 20 19 18 19 18 16 21 24 26 24 24 25 22 21 20 19 19 20
15 15 19 24 28 32 31 34 33 33 32 27 23 23 22 20 26 8 5 11 21 19 19 17 16 24 25 23 21 18 16 16 18 22 25 28 28 28 28 26 25 24 25
14 13 17 22 26 32 35 35 36 37 34 30 27 21 21 8 17 14 3 14 19 23 28 24 26 19 25 25 25 22 23 25 26 24 23 25 30 32 31 31 32 30 30
12 10 12 17 21 29 35 35 37 37 41 34 33 30 28 23 16 23 12 12 8 14 17 28 27 26 24 22 24 26 27 27 25 25 26 28 29 32 35 37 37 37 38
12 11 10 10 15 24 31 34 34 34 40 37 34 33 31 22 17 6 6 10 3 4 10 14 23 22 24 25 23 20 21 25 29 31 32 33 33 34 35 36 39 40 41
13 11 8 9 10 18 24 28 27 35 38 36 33 31 27 22 12 9 7 3 5 3 4 15 10 21 21 20 21 21 23 29 28 30 32 34 38 40 40 42 40 40 40
14 13 10 10 13 15 20 23 24 26 32 33 29 30 24 16 15 13 9 9 11 5 2 8 11 11 17 20 21 19 20 23 26 29 30 34 33 34 35 36 38 34 39
15 12 13 13 13 17 19 22 23 26 27 27 26 21 17 16 16 14 17 19 16 15 7 15 19 16 15 17 19 20 23 27 28 30 35 38 39 41 41 38 39 43 45
14 13 14 16 13 16 18 21 22 20 19 18 19 17 17 18 19 20 19 18 19 17 17 11 18 21 25 28 30 32 35 37 38 40 44 51 54 55 52 52 52 53 55
12 13 14 13 15 17 20 21 20 21 19 20 23 25 24 21 22 23 23 21 19 19 21 20 23 23 25 26 27 30 30 32 35 37 37 38 42 46 48 48 46 50 48
13 13 11 11 11 14 16 19 20 17 19 22 24 22 23 21 23 22 24 26 25 24 22 22 23 26 26 28 23 25 24 25 27 19 16 9 7 10 14 15 20 21 21
13 13 14 16 14 14 13 15 18 20 20 21 22 24 20 19 20 20 22 21 20 22 22 22 22 22 21 17 7 6 5 9 8 4 5 7 13 14 12 10 11 12 16
18 18 17 15 13 10 7 12 12 13 15 14 11 10 12 14 15 19 23 28 26 18 13 4 2 4 3 6 11 14 13 7 4 6 12 19 15 11 10 11 9 11 12
22 22 20 18 18 15 11 11 14 14 15 13 11 9 7 7 6 7 10 10 10 11 5 2 6 8 6 9 9 7 5 5 4 11 13 4 10 10 7 7 10 11 11
26 25 24 22 22 20 16 15 15 17 18 16 12 10 8 8 9 7 10 16 19 19 17 18 17 15 12 9 7 7 7 3 3 8 12 4 13 12 9 7 9 10 12
30 31 29 28 27 24 19 19 21 24 26 27 24 20 18 17 13 11 16 23 25 25 23 22 21 17 16 15 10 7 13 8 3 6 18 6 12 13 9 5 9 10 12
30 34 33 32 31 30 25 23 24 26 30 30 30 32 28 24 22 19 20 21 24 20 17 16 18 17 18 19 21 18 13 12 8 4 15 8 11 12 5 2 9 8 11
Wind_Direction
205 194 190 197 209 211 195 200 204 195 207 198 196 187 188 190 156 166 161 162 163 158 156 160 156 154 154 154 153 151 148 150 150 150 150 149 152 153 150 147 153 154 148
207 195 193 192 195 199 198 203 202 203 203 209 203 184 189 189 176 171 162 164 166 161 161 164 163 158 162 162 161 160 158 158 156 158 164 160 162 165 164 165 171 173 162
213 211 194 189 190 196 201 208 210 208 211 212 198 179 184 188 145 159 154 161 165 166 167 168 170 161 170 171 168 168 166 167 165 164 173 168 176 177 182 185 189 190 186
213 206 198 192 190 192 203 203 200 205 203 205 193 180 184 163 167 144 153 164 173 176 178 178 175 171 180 181 177 171 174 177 176 175 182 188 191 190 195 198 201 203 205
203 200 192 190 185 192 196 197 198 206 200 197 202 173 168 160 168 171 162 165 175 186 186 182 180 180 190 189 186 183 184 187 187 188 191 196 201 202 205 208 208 210 214
200 197 199 201 189 194 194 200 197 207 200 193 192 170 160 160 160 182 170 174 177 187 187 183 183 189 197 199 196 194 194 195 199 201 203 205 210 214 215 217 220 220 223
202 196 196 192 191 195 194 190 184 184 184 193 188 137 149 158 169 187 175 180 181 192 188 195 194 199 204 210 208 204 202 204 207 208 211 213 218 223 225 225 228 232 234
206 206 213 210 204 200 197 186 178 171 180 193 197 132 109 106 148 171 183 189 179 185 193 196 198 205 212 214 216 219 212 211 215 219 220 222 226 231 233 235 239 241 243
210 210 211 215 219 223 201 185 184 180 179 191 202 162 147 166 133 195 213 222 200 194 193 193 205 198 210 219 220 222 223 218 217 226 233 237 237 240 243 243 247 249 251
207 208 214 219 216 201 187 190 193 187 182 182 198 183 162 153 160 151 205 217 224 216 202 205 203 202 206 213 226 229 232 231 228 223 224 239 249 248 247 247 248 252 256
188 199 213 213 209 209 202 193 190 192 185 181 186 185 184 169 181 153 170 196 214 223 220 211 213 217 221 222 228 230 234 235 237 236 234 233 238 251 256 256 255 256 257
198 201 211 217 210 213 213 196 199 192 189 182 185 191 197 186 187 174 153 187 197 214 214 215 222 225 216 220 225 229 238 247 249 247 245 247 246 244 247 256 261 261 262
187 203 214 215 219 224 207 205 194 189 184 181 186 197 204 209 194 201 188 184 183 205 209 211 215 217 220 223 229 234 239 242 244 250 254 252 251 252 252 251 253 258 263
196 202 201 208 219 216 208 201 197 188 180 183 195 207 204 200 214 186 126 146 128 189 189 207 208 213 222 225 227 237 250 248 246 250 255 258 257 255 257 258 259 260 263
187 191 193 191 211 201 204 195 188 189 178 185 206 206 206 204 196 207 200 161 164 187 203 204 189 215 220 219 230 242 249 253 256 258 263 267 264 263 263 261 260 263 266
177 175 177 184 192 195 198 193 187 183 179 195 197 196 205 197 223 220 241 256 246 243 242 229 216 232 230 228 234 238 251 252 258 264 270 272 273 269 268 268 261 262 271
180 187 189 184 188 191 188 182 172 172 163 156 162 179 184 201 227 233 235 239 235 242 247 265 254 245 231 235 239 252 265 262 259 257 262 263 269 272 268 270 266 265 272
168 176 180 177 183 185 189 191 190 189 178 177 185 199 218 222 229 235 251 242 242 239 229 241 254 259 261 266 270 276 276 275 273 274 270 271 275 276 276 274 273 276 273
169 165 173 185 191 195 196 194 189 188 194 198 204 211 223 227 231 233 234 238 243 245 252 251 260 266 269 270 269 271 272 276 280 282 280 277 275 272 270 271 273 273 275
136 153 160 167 183 191 195 200 196 194 207 214 217 221 218 221 232 239 244 250 249 246 240 236 254 267 271 270 263 263 269 278 274 271 264 239 256 280 274 270 271 277 282
130 133 117 119 132 150 167 180 192 200 203 206 215 221 227 227 230 230 234 244 237 238 241 242 246 253 261 276 290 338 350 324 314 343 314 317 340 339 341 330 323 314 321
115 118 113 110 104 89 128 166 152 182 197 204 188 181 186 208 224 237 242 244 239 240 243 253 25 46 358 331 318 323 323 339 307 326 335 323 323 332 349 357 16 22 22
110 102 95 96 91 85 86 127 146 123 116 114 119 126 132 118 135 151 108 101 85 77 77 134 92 48 33 1 337 345 346 339 321 335 334 346 350 354 355 352 4 13 9
98 94 91 84 88 78 88 107 123 112 100 88 83 81 84 79 119 141 114 90 80 72 74 80 84 79 60 45 39 46 11 23 81 21 19 29 6 4 350 351 5 8 9
85 83 83 83 77 77 86 97 105 102 95 83 76 72 78 86 95 103 107 102 93 85 78 76 75 68 65 63 61 80 50 47 86 44 21 25 11 350 338 10 11 8 359
82 83 79 77 76 77 74 86 95 96 89 82 75 71 73 83 87 93 98 99 90 88 82 74 67 59 54 50 53 61 71 52 38 62 10 22 13 7 328 318 339 344 355